Budapest Ferihegy, Hungary

6:12 AM CEST on April 24, 2017 (GMT +0200)
Ferihegy

Weather History for LHBP - May, 2013

Change the Weather History Date:

Wednesday, May 1, 2013

  Actual Average Record
Temperature  
Mean Temperature 68 °F -  
Max Temperature 82 °F 70 °F 87 °F (2012)
Min Temperature 53 °F 47 °F 39 °F (2002)
Cooling Degree Days 2    
Growing Degree Days 18 (Base 50)    
Moisture  
Dew Point 54 °F    
Average Humidity 63    
Maximum Humidity 94    
Minimum Humidity 35    
Precipitation  
Precipitation 0.00 in - - ()
Sea Level Pressure  
Sea Level Pressure 30.07 in    
Wind  
Wind Speed 4 mph ()    
Max Wind Speed 12 mph    
Max Gust Speed -    
Visibility 6.2 miles    
Events      
Averages and records for this station are not official NWS values.
T = Trace of Precipitation, MM = Missing Value Source: Averaged Metar Reports

Daily Weather History Graph

Daily Weather History Graph

Search for Another Location

Airport or City:

Trip Planner

Search our weather history database for the weather conditions in past years. The results will help you decide how hot, cold, wet, or windy it might be!

Date:

Astronomy

May. 01, 2013 Rise Set
Actual Time 5:26 AM CEST 7:54 PM CEST
Civil Twilight 4:52 AM CEST 8:28 PM CEST
Nautical Twilight 4:09 AM CEST 9:12 PM CEST
Astronomical Twilight 3:19 AM CEST 10:01 PM CEST
Moon 12:53 AM CEST (5/1) 10:42 AM CEST (5/1)
Length of Visible Light 15h 36m
Length of Day
14h 28m
Waning Gibbous, 62% of the Moon is Illuminated
May 1
Waning Gibbous
May 2
Last Quarter
May 10
New
May 18
First Quarter
May 25
Full

Hourly Weather History & Observations

Time (CEST) Temp. Heat Index Dew Point Humidity Pressure Visibility Wind Dir Wind Speed Gust Speed Precip Events Conditions
12:00 AM 62.6 °F - 51.8 °F 68% 30.04 in - Variable 3.5 mph - N/A   Clear
12:30 AM 60.8 °F - 51.8 °F 72% 30.04 in - Variable 1.2 mph - N/A   Clear
1:00 AM 59.0 °F - 51.8 °F 77% 30.04 in - Variable 2.3 mph - N/A   Clear
1:30 AM 59.0 °F - 51.8 °F 77% 30.04 in - East 4.6 mph - N/A   Clear
2:00 AM 57.2 °F - 51.8 °F 82% 30.04 in - Variable 1.2 mph - N/A   Clear
2:30 AM 57.2 °F - 51.8 °F 82% 30.04 in - Variable 2.3 mph - N/A   Clear
3:00 AM 57.2 °F - 51.8 °F 82% 30.06 in - Calm Calm - N/A   Clear
3:30 AM 55.4 °F - 50.0 °F 82% 30.04 in - Variable 3.5 mph - N/A   Clear
4:00 AM 57.2 °F - 51.8 °F 82% 30.06 in - Variable 3.5 mph - N/A   Clear
4:30 AM 55.4 °F - 51.8 °F 88% 30.06 in - NE 4.6 mph - N/A   Clear
5:00 AM 55.4 °F - 51.8 °F 88% 30.06 in - NE 4.6 mph - N/A   Clear
5:30 AM 55.4 °F - 51.8 °F 88% 30.06 in - Variable 3.5 mph - N/A   Clear
6:00 AM 53.6 °F - 51.8 °F 94% 30.06 in - Variable 3.5 mph - N/A   Clear
6:30 AM 53.6 °F - 51.8 °F 94% 30.09 in - Variable 2.3 mph - N/A   Clear
7:00 AM 57.2 °F - 53.6 °F 88% 30.09 in - Variable 2.3 mph - N/A   Clear
7:30 AM 60.8 °F - 55.4 °F 82% 30.09 in - Variable 3.5 mph - N/A   Clear
8:00 AM 64.4 °F - 55.4 °F 73% 30.09 in - Variable 2.3 mph - N/A   Clear
8:30 AM 66.2 °F - 55.4 °F 68% 30.09 in - Variable 3.5 mph - N/A   Clear
9:00 AM 69.8 °F - 57.2 °F 64% 30.09 in - SW 4.6 mph - N/A   Clear
9:30 AM 71.6 °F - 55.4 °F 57% 30.09 in - SW 5.8 mph - N/A   Clear
10:00 AM 73.4 °F - 57.2 °F 57% 30.09 in - SW 5.8 mph - N/A   Clear
10:30 AM 73.4 °F - 55.4 °F 53% 30.12 in - SW 4.6 mph - N/A   Clear
11:00 AM 77.0 °F - 57.2 °F 50% 30.12 in - Variable 3.5 mph - N/A   Clear
11:30 AM 77.0 °F - 57.2 °F 50% 30.09 in - SE 4.6 mph - N/A   Clear
12:00 PM 78.8 °F - 57.2 °F 47% 30.09 in - Variable 3.5 mph - N/A   Clear
12:30 PM 78.8 °F - 55.4 °F 44% 30.09 in - Variable 3.5 mph - N/A   Clear
1:00 PM 80.6 °F 80.8 °F 57.2 °F 45% 30.09 in 6.2 mi Variable 3.5 mph - N/A   Partly Cloudy
1:30 PM 80.6 °F 80.8 °F 57.2 °F 45% 30.09 in - West 5.8 mph - N/A   Clear
2:00 PM 82.4 °F 81.7 °F 55.4 °F 39% 30.09 in - SW 8.1 mph - N/A   Clear
2:30 PM 82.4 °F 81.4 °F 53.6 °F 37% 30.06 in - SW 9.2 mph - N/A   Clear
3:00 PM 82.4 °F 81.4 °F 53.6 °F 37% 30.06 in - SW 10.4 mph - N/A   Clear
3:30 PM 82.4 °F - 51.8 °F 35% 30.06 in - SW 10.4 mph - N/A   Clear
4:00 PM 82.4 °F 81.4 °F 53.6 °F 37% 30.06 in - WSW 11.5 mph - N/A   Clear
4:30 PM 82.4 °F - 51.8 °F 35% 30.06 in - SW 11.5 mph - N/A   Clear
5:00 PM 82.4 °F 81.7 °F 55.4 °F 39% 30.04 in - WSW 6.9 mph - N/A   Clear
5:30 PM 82.4 °F 81.4 °F 53.6 °F 37% 30.04 in - SW 8.1 mph - N/A   Clear
6:00 PM 82.4 °F 81.7 °F 55.4 °F 39% 30.04 in - WSW 4.6 mph - N/A   Clear
6:30 PM 80.6 °F 80.5 °F 55.4 °F 42% 30.04 in - SW 4.6 mph - N/A   Clear
7:00 PM 78.8 °F - 55.4 °F 44% 30.04 in - Variable 3.5 mph - N/A   Clear
7:30 PM 78.8 °F - 55.4 °F 44% 30.04 in - Variable 3.5 mph - N/A   Clear
8:00 PM 73.4 °F - 57.2 °F 57% 30.04 in - Calm Calm - N/A   Clear
8:30 PM 69.8 °F - 57.2 °F 64% 30.06 in - Variable 2.3 mph - N/A   Clear
9:00 PM 68.0 °F - 57.2 °F 68% 30.06 in - Variable 2.3 mph - N/A   Clear
9:30 PM 64.4 °F - 57.2 °F 77% 30.06 in - Variable 2.3 mph - N/A   Clear
10:00 PM 64.4 °F - 57.2 °F 77% 30.06 in - Variable 3.5 mph - N/A   Clear
10:30 PM 62.6 °F - 55.4 °F 77% 30.06 in - Variable 3.5 mph - N/A   Clear
11:00 PM 62.6 °F - 55.4 °F 77% 30.06 in - Variable 3.5 mph - N/A   Clear
11:30 PM 66.2 °F - 55.4 °F 68% 30.06 in - ENE 6.9 mph - N/A   Clear